Hilo, HI

8:40 PM HST on August 29, 2014 (GMT -1000)
Hilo International | Change Station
CLOSE
Current Station
Airport
Location: Hilo,
Elevation: 36 ft
Nearby Weather Stations
Active Advisory: High Surf Advisory

Elev 36 ft 19.72 °N, 155.05 °W | Updated 8 minutes ago

Light Rain
Light Rain
76 °F
Feels Like 76 °F
N
13
Wind Variable Wind from NNW

Today
High -- | Low -- °F
--% Chance of Precip.
Yesterday
High -- | Low -- °F
Precip. -- in
6:04 AM 6:37 PM
Waxing Crescent, 19% visible
Pressure 29.93 in
Visibility 10.0 miles
Clouds Few 1800 ft
Mostly Cloudy 2700 ft
Overcast 5500 ft
Dew Point 72 °F
Humidity 87%
Rainfall 0.00 in
Snow Depth Not available.
UV 0 out of 12
Pollen Not available.
Air Quality Not available.
Flu Activity Not available.
SPECI PHTO 300632Z 33011KT 10SM -RA FEW018 BKN027 OVC055 24/22 A2993 RMK AO2 RAB07 P0002 T02440222 $

More Conditions Fewer Conditions

Pressure 29.93 in
Visibility 10.0 miles
Clouds Few 1800 ft
Mostly Cloudy 2700 ft
Overcast 5500 ft
Dew Point 72 °F
Humidity 87%
Rainfall 0.00 in
Snow Depth Not available.
UV 0 out of 12
Pollen Not available.
Air Quality Not available.
Flu Activity Not available.
SPECI PHTO 300632Z 33011KT 10SM -RA FEW018 BKN027 OVC055 24/22 A2993 RMK AO2 RAB07 P0002 T02440222 $

More Conditions Fewer Conditions

10-Day Weather Forecast

Almanac

Astronomy

Aug. 29, 2014 Rise Set
Actual Time 6:04 AM HST 6:37 PM HST
Civil Twilight 5:41 AM HST 7:00 PM HST
Nautical Twilight 5:15 AM HST 7:26 PM HST
Astronomical Twilight 4:49 AM HST 7:52 PM HST
Moon 9:27 AM HST (8/29) 9:21 PM HST (8/29)
Length of Visible Light 13h 18m
Length of Day
12h 33m
Tomorrow will be 1m 5s shorter.
Waxing Crescent, 19% of the Moon is Illuminated
Aug 30
Waxing Crescent
Sep 2
First Quarter
Sep 8
Full
Sep 15
Last Quarter
Sep 24
New

Yesterday's Extremes

State Highs State Lows

Community

WunderPhotos

Upload Photos

1,748,462 photos uploaded!

Nearby

Air Quality

  Air Quality AQ Index Pollutant
Yesterday Good
PM2.5

Snow Depth

Station Depth Elevation
No new snow has been reported.

Earthquake Activity

City Distance Mag. Time & Date
No recent earthquake activity has been reported nearby.
Minimum magnitude displayed is 2.5.

Coastal Water Temperatures

Place Temperature
No Stations Reporting

Nearby Weather Stations